Location: Newark
(53.3333°N, 83.7500°E)
Time: 03:47:02
(UTC+00:00)

Vanguard 2 - Pass Details

Date: 26 November 2019
Orbit: 553 x 2938 km, 32.9° (Epoch: 06 December)

Event Time Altitude Azimuth Distance (km) Brightness Sun altitude
Rises 02:09:43 0° 240° (WSW) 6,164 11.9 -0.7°
Reaches altitude 10° 02:15:22 10° 229° (SW) 4,753 11.5 0.0°
Maximum altitude 02:24:04 22° 185° (S) 3,103 11.1 1.0°
Drops below altitude 10° 02:30:23 10° 138° (SE) 3,330 13.0 1.8°
Sets 02:33:29 0° 123° (ESE) 3,965 13.9 2.1°
